Location: Central Coast NSW, Australia
(33.2407°S, 151.4316°E)
Time: 11:30:16
(UTC+11:00)

N. Korean satellite - Visible Passes

Search period start: 23 March 2019 00:00
Search period end: 02 April 2019 00:00
Orbit: 456 x 510 km, 97.2° (Epoch: 22 March)

Date Brightness Start Highest point End Pass type
(mag) Time Alt. Az. Time Alt. Az. Time Alt. Az.
23 Mar 7.4 06:09:33 10° NNE 06:13:14 57° ESE 06:16:58 10° S visible
24 Mar 9.1 05:45:23 10° NE 05:48:33 26° ESE 05:51:45 10° SSE visible
25 Mar 10.1 05:22:09 10° E 05:23:57 13° ESE 05:25:45 10° SE visible
25 Mar 9.9 19:58:53 10° SW 20:00:54 14° WSW 20:02:54 10° WNW visible
26 Mar 6.6 06:28:25 10° N 06:32:10 74° W 06:35:58 10° SSW visible
26 Mar 8.9 19:33:05 10° SSW 19:36:17 29° WSW 19:39:24 10° NW visible
27 Mar 7.8 06:03:47 10° NNE 06:07:24 47° ESE 06:11:04 10° S visible
28 Mar 9.4 05:39:45 10° NE 05:42:44 22° ESE 05:45:43 10° SSE visible
29 Mar 10.2 05:17:00 10° E 05:18:07 11° ESE 05:19:15 10° SE visible
29 Mar 9.8 19:52:42 10° SSW 19:55:03 17° WSW 19:57:21 10° WNW visible
30 Mar 6.7 06:22:31 10° NNE 06:26:17 89° WNW 06:30:05 10° SSW visible
30 Mar 8.4 19:27:04 10° S 19:30:23 35° WSW 19:33:36 10° NW visible
31 Mar 8.2 05:58:00 10° NE 06:01:31 39° ESE 06:05:05 10° S visible
01 Apr 9.6 05:34:08 10° ENE 05:36:51 19° ESE 05:39:35 10° SSE visible
